Location: Bremen
(53.0833°N, 8.8000°E)
Time: 08:36:22
(UTC+02:00)

Envisat - Visible Passes

Search period start: 16 July 2024 00:00
Search period end: 26 July 2024 00:00
Orbit: 762 x 764 km, 98.3° (Epoch: 15 July)

Date Brightness Start Highest point End Pass type
(mag) Time Alt. Az. Time Alt. Az. Time Alt. Az.
17 Jul 4.7 03:56:07 10° NNE 04:00:34 30° E 04:04:59 10° SSE visible
18 Jul 5.4 03:19:42 10° NE 03:22:43 16° E 03:25:43 10° ESE visible
19 Jul 4.0 04:20:03 10° NNE 04:24:57 45° E 04:29:48 10° S visible
20 Jul 5.0 03:43:09 10° NE 03:47:15 24° E 03:51:18 10° SE visible
21 Jul 5.6 03:07:18 10° ENE 03:09:20 12° E 03:11:20 10° ESE visible
22 Jul 4.3 04:06:58 10° NNE 04:11:40 36° E 04:16:20 10° SSE visible
23 Jul 5.3 03:30:17 10° NE 03:33:53 19° E 03:37:29 10° SE visible
24 Jul 3.6 04:31:00 10° NNE 04:36:00 56° E 04:41:00 10° S visible
25 Jul 4.7 03:53:57 10° NNE 03:58:22 29° E 04:02:45 10° SSE visible
